Weather History for Oujda, Morocco

Change the Weather History Date:

Friday, December 6, 2013

  Actual Average Record
Temperature  
Mean Temperature 50 °F -  
Max Temperature 62 °F 60 °F 73 °F (2000)
Min Temperature 37 °F 40 °F 37 °F (2013)
Degree Days  
Heating Degree Days 16    
Moisture  
Dew Point 39 °F    
Average Humidity 69    
Maximum Humidity 94    
Minimum Humidity 29    
Precipitation  
Precipitation 0.00 in 0.06 in - ()
Sea Level Pressure  
Sea Level Pressure 30.23 in    
Wind  
Wind Speed 5 mph ()    
Max Wind Speed 10 mph    
Max Gust Speed -    
Visibility 10.9 miles    
Events      
Averages and records for this station are not official NWS values.
T = Trace of Precipitation, MM = Missing Value Source: Averaged Metar Reports

Daily Weather History Graph

Daily Weather History Graph

Search for Another Location

Airport:

Trip Planner

Search our weather history database for the weather conditions in past years. The results will help you decide how hot, cold, wet, or windy it might be!

Date:

Astronomy

Dec. 06, 2013 Rise Set
Actual Time 7:01 AM WET 4:56 PM WET
Civil Twilight 6:33 AM WET 5:24 PM WET
Nautical Twilight 6:01 AM WET 5:55 PM WET
Astronomical Twilight 5:31 AM WET 6:26 PM WET
Moon 10:00 AM WET (12/6) 9:05 PM WET (12/6)
Length of Visible Light 10h 50m
Length of Day
9h 55m
Waxing Crescent, 17% of the Moon is Illuminated
Dec 6
Waxing Crescent
Dec 9
First Quarter
Dec 17
Full
Dec 25
Last Quarter
Jan 1
New

Hourly Weather History & Observations

Time (WET) Temp. Windchill Dew Point Humidity Pressure Visibility Wind Dir Wind Speed Gust Speed Precip Events Conditions
2:00 AM 42.8 °F 40.1 °F 41.0 °F 93% 30.27 in 5.0 mi WSW 4.6 mph - N/A   Unknown
3:00 AM 41 °F - 40 °F 94% 30.31 in 5 mi SW 3.5 mph - -  
4:00 AM 39.2 °F 35.0 °F 37.4 °F 93% 30.24 in - SW 5.8 mph - N/A   Clear
5:00 AM 41.0 °F - 39.2 °F 93% 30.24 in - Variable 2.3 mph - N/A   Clear
6:00 AM 40 °F - 39 °F 93% 30.31 in 6 mi SW 6.9 mph - -  
6:00 AM 41.0 °F 36.4 °F 39.2 °F 93% 30.24 in - SW 6.9 mph - N/A   Clear
7:00 AM 42.8 °F 37.0 °F 41.0 °F 93% 30.27 in - SW 10.4 mph - N/A   Clear
8:00 AM 44.6 °F 39.7 °F 41.0 °F 87% 30.27 in - SW 9.2 mph - N/A   Clear
9:00 AM 51 °F - 42 °F 61% 30.31 in 16 mi SW 8.1 mph - -  
11:00 AM 59.0 °F - 44.6 °F 59% 30.27 in - East 4.6 mph - N/A   Clear
12:00 PM 62 °F - 39 °F 31% 30.23 in 16 mi SSW 8.1 mph - -  
12:00 PM 62.6 °F - 39.2 °F 42% 30.24 in - North - - N/A   Clear
2:00 PM 62.6 °F - 35.6 °F 37% 30.21 in - SSW 6.9 mph - N/A   Clear
3:00 PM 62 °F - 38 °F 29% 30.17 in 16 mi East 8.1 mph - -  
3:00 PM 62.6 °F - 37.4 °F 39% 30.18 in - East 8.1 mph - N/A   Clear
4:00 PM 60.8 °F - 37.4 °F 42% 30.18 in - East 8.1 mph - N/A   Clear
5:00 PM 57.2 °F - 39.2 °F 51% 30.18 in - East 4.6 mph - N/A   Clear
6:00 PM 50.0 °F - 39.2 °F 66% 30.18 in - SSE 4.6 mph - N/A   Clear
8:00 PM 46.4 °F 44.3 °F 39.2 °F 76% 30.21 in - South 4.6 mph - N/A   Clear
9:00 PM 43 °F - 38 °F 74% 30.26 in 12 mi SSW 5.8 mph - -  
9:00 PM 42.8 °F 39.3 °F 37.4 °F 81% 30.21 in - SSW 5.8 mph - N/A   Clear
10:00 PM 39.2 °F 33.6 °F 35.6 °F 87% 30.21 in - SW 8.1 mph - N/A   Clear
11:00 PM 42.8 °F - 33.8 °F 70% 30.21 in - Variable 1.2 mph - N/A   Clear